Simultaneous Nadir Overpasses (SNOs) Predictions

Prediction of SNOs between GOES-15 and TERRA Satellite Orbit:

Table of predicted SNOs for the next 14.0 days since TLE Epoch: 11/5/2016
Index Date Time (GOES-15) GOES-15 Lat,Lon TERRA Lat,Lon Distance(km) Time Diff (sec)
1 11/06/2016 07:16:07 0.25,-134.97 0.90,-131.90 349.51 80
2 11/06/2016 19:40:02 -0.24,-134.97 0.23,-137.05 237.29 80
3 11/08/2016 19:25:11 -0.24,-135.03 -0.45,-134.10 105.81 80
4 11/09/2016 07:49:15 0.22,-135.07 -0.65,-139.29 479.51 80
5 11/10/2016 19:13:14 -0.24,-135.08 -1.07,-131.14 448.24 65
6 11/11/2016 07:37:03 0.22,-135.12 -0.03,-136.33 137.31 80
7 11/13/2016 07:22:11 0.23,-135.17 0.61,-133.37 204.13 80
8 11/13/2016 19:46:06 -0.21,-135.15 0.52,-138.52 383.98 80
9 11/15/2016 19:33:54 -0.21,-135.19 -0.12,-135.57 43.31 80
10 11/17/2016 19:19:02 -0.21,-135.22 -0.76,-132.61 296.87 80
11 11/18/2016 07:43:06 0.20,-135.26 -0.33,-137.80 288.43 80




NCC Satellite Simultaneous Nadir Overpasses (SNOs) Prediction Service
